Location: Helsinki
(60.1699°N, 24.9384°E)
Time: 22:06:01
(UTC+02:00)

Explorer 7 - All Passes

Search period start: 28 October 2020 00:00
Search period end: 07 November 2020 00:00
Orbit: 484 x 678 km, 50.3° (Epoch: 27 October)

Date Brightness Start Highest point End Pass type
(mag) Time Alt. Az. Time Alt. Az. Time Alt. Az.
28 Oct - 15:56:41 10° SSW 15:59:15 17° SSE 16:01:52 10° SE daylight
28 Oct - 17:36:00 10° SW 17:38:47 19° S 17:41:40 10° SE visible
28 Oct - 19:16:52 10° SW 19:18:14 11° SSW 19:19:36 10° S visible
29 Oct - 14:23:19 10° SSE 14:24:19 11° SSE 14:25:18 10° SE daylight
29 Oct - 16:00:58 10° SW 16:03:41 19° S 16:06:28 10° SE daylight
29 Oct - 17:40:38 10° SW 17:43:14 17° SSW 17:45:56 10° SSE visible
30 Oct - 14:26:49 10° S 14:28:41 13° SSE 14:30:35 10° SE daylight
30 Oct - 16:05:22 10° SW 16:08:09 19° S 16:10:59 10° SE daylight
30 Oct - 17:45:22 10° SW 17:47:41 15° SSW 17:50:02 10° SSE visible
31 Oct - 14:30:48 10° SSW 14:33:05 16° SSE 14:35:25 10° SE daylight
31 Oct - 16:09:51 10° SW 16:12:36 19° S 16:15:25 10° SE daylight
31 Oct - 17:50:19 10° SW 17:52:04 13° SSW 17:53:53 10° S visible
01 Nov - 14:34:58 10° SSW 14:37:31 17° SSE 14:40:06 10° SE daylight
01 Nov - 16:14:25 10° SW 16:17:03 18° S 16:19:45 10° SE daylight
01 Nov - 17:56:07 10° SSW 17:56:27 10° SSW 17:56:48 10° SSW visible
02 Nov - 13:01:18 10° S 13:02:33 11° SSE 13:03:48 10° SE daylight
02 Nov - 14:39:18 10° SW 14:41:58 18° S 14:44:40 10° SE daylight
02 Nov - 16:19:04 10° SW 16:21:30 16° SSW 16:23:58 10° SSE daylight
03 Nov - 13:04:58 10° SSW 13:06:56 14° SSE 13:08:55 10° SE daylight
03 Nov - 14:43:43 10° SW 14:46:25 19° S 14:49:10 10° SE daylight
03 Nov - 16:23:52 10° SW 16:25:55 14° SSW 16:28:00 10° SSE daylight
04 Nov - 13:09:00 10° SSW 13:11:21 16° SSE 13:13:42 10° SE daylight
04 Nov - 14:48:13 10° SW 14:50:52 18° S 14:53:34 10° SE daylight
04 Nov - 16:28:58 10° SW 16:30:18 12° SSW 16:31:40 10° S daylight
05 Nov - 13:13:13 10° SW 13:15:47 18° S 13:18:21 10° SE daylight
05 Nov - 14:52:47 10° SW 14:55:18 17° S 14:57:51 10° SSE daylight
06 Nov - 11:39:16 10° S 11:40:47 12° SSE 11:42:18 10° SE daylight
06 Nov - 13:17:33 10° SW 13:20:13 18° S 13:22:53 10° SE daylight
06 Nov - 14:57:29 10° SW 14:59:44 15° SSW 15:02:01 10° SSE daylight
